780  
ASUS44 KOUN 210710  
RWROK  
 
WEATHER ROUNDUP FOR OKLAHOMA  
NATIONAL WEATHER SERVICE NORMAN OK  
100 AM CST WED FEB 21 2018  
 
NOTE: "FAIR" INDICATES FEW OR NO CLOUDS BELOW 12,000 FEET WITH NO  
SIGNIFICANT WEATHER AND/OR S TO VISIBILITY
.  
 
OKZ001>007-009>012-014-015-017-210800-  
NORTHWEST OKLAHOMA AND THE PANHANDLE  
 
CITY SKY/WX TMP DP RH WIND PRES REMARKS
 
GAGE CLOUDY 22 6 50 NE16G26 30.35R WCI 8  
GUYMON CLOUDY 21 0 39 N14 30.35R WCI 8  
ENID/WOODRING PTCLDY 25 21 86 N14 30.37F WCI 13  

 
 
OKZ016-021>023-033>039-044-045-210800-  
SOUTHWEST OKLAHOMA  
 
CITY SKY/WX TMP DP RH WIND PRES REMARKS
 
LAWTON/REGL CLOUDY 28 23 81 N20G33 30.30R WCI 15  
LAWTON/FT SILL CLOUDY 26 24 93 N23G30 30.28R WCI 11  
FREDERICK CLOUDY 29 21 72 N26 30.28R WCI 14  
CLINTON CLOUDY 23 13 65 N25 30.32R WCI 7  
HOBART PTCLDY 27 21 78 NE18 30.33S WCI 14  
ALTUS AFB PTCLDY 28 19 70 N16 30.32R WCI 15  

 
 
OKZ018>020-024>031-210800-  
CENTRAL OKLAHOMA  
 
CITY SKY/WX TMP DP RH WIND PRES REMARKS
 
OKLAHOMA CITY MOCLDY 24 19 81 N22 30.30R WCI 9  
OKC/WILEY POST PTCLDY 24 20 84 N18G25 30.33R WCI 10  
OKC/TINKER AFB CLOUDY 24 21 88 N15 30.30R WCI 11  
STILLWATER PTCLDY 23 19 85 N14 30.35R WCI 11  
GUTHRIE PTCLDY 23 20 88 N8G17 30.35R WCI 14  

 
 
OKZ008-013-054>072-210800-  
NORTHEAST OKLAHOMA  
 
CITY SKY/WX TMP DP RH WIND PRES REMARKS
 
TULSA CLOUDY 28 24 85 N14 30.32R WCI 17  
TULSA/JONES CLOUDY 28 22 78 N12 30.33R WCI 18  
PONCA CITY PTCLDY 23 16 74 N13 30.39R WCI 11  
BARTLESVILLE CLOUDY 25 20 81 N15 30.37R WCI 13  
MUSKOGEE CLOUDY 31 29 92 N13 30.31R WCI 21  

 
 
OKZ032-040>043-046>053-073>077-210800-  
SOUTH CENTRAL/SOUTHEAST OKLAHOMA  
 
CITY SKY/WX TMP DP RH WIND PRES REMARKS
 
ARDMORE/DWNTWN MIX PCPN 32 28 86 CALM 30.25R  
MCALESTER MIX PCPN 31 29 92 N15 30.27R WCI 20  

 
 
 
 
CLICK HERE TO GO TO PREVIOUS BULLETINS.

The Nexlab OK Page Main Text Page